Location: Marcé
(47.5801°N, 0.3280°W)
Time: 20:21:12
(UTC+01:00)

Altair - Pass Details

Date: 15 December 2021
Orbit: 1501 x 1683 km, 47.2° (Epoch: 20 January)

Event Time Altitude Azimuth Distance (km) Brightness Sun altitude
Rises 13:43:36 0° 231° (SW) 4,865 10.9 18.3°
Reaches altitude 10° 13:46:49 10° 228° (SW) 3,859 10.6 18.2°
Maximum altitude 13:56:23 60° 152° (SSE) 1,774 8.5 17.9°
Drops below altitude 10° 14:05:36 10° 75° (ENE) 3,727 9.3 17.4°
Sets 14:08:39 0° 72° (ENE) 4,691 9.7 17.3°
